QPF
0.00 0.00 0.01 0.01 0.01 0.02 0.02 0.02 0.01 0.01 0.01 0.01 0.01 0.01 0.01 0.01 0.01 0.01 0.01 0.01 0.01 0.02 0.02 0.02 0.02 0.01 0.02 0.03 0.03 0.01 0.00 0.00 0.01 0.01 0.01 0.01 0.00 0.00 0.00 0.00 0.00 0.00 0.00
0.00 0.00 0.01 0.01 0.01 0.02 0.02 0.02 0.02 0.01 0.01 0.01 0.00 0.00 0.00 0.00 0.00 0.01 0.01 0.01 0.01 0.01 0.01 0.02 0.02 0.02 0.01 0.02 0.02 0.01 0.00 0.00 0.00 0.00 0.00 0.00 0.00 0.00 0.00 0.00 0.00 0.00 0.01
0.00 0.00 0.01 0.01 0.01 0.01 0.02 0.02 0.02 0.01 0.01 0.01 0.01 0.00 0.00 0.00 0.00 0.00 0.01 0.01 0.01 0.01 0.02 0.02 0.02 0.02 0.01 0.01 0.01 0.01 0.00 0.00 0.00 0.00 0.00 0.00 0.00 0.00 0.00 0.00 0.00 0.00 0.01
0.00 0.01 0.01 0.01 0.01 0.01 0.02 0.02 0.03 0.02 0.01 0.01 0.01 0.01 0.00 0.00 0.00 0.01 0.01 0.01 0.01 0.01 0.01 0.01 0.01 0.02 0.02 0.02 0.01 0.01 0.00 0.00 0.00 0.00 0.00 0.00 0.00 0.00 0.01 0.00 0.00 0.00 0.01
0.01 0.01 0.02 0.02 0.02 0.02 0.02 0.02 0.03 0.04 0.04 0.02 0.02 0.01 0.01 0.01 0.01 0.01 0.01 0.01 0.01 0.01 0.01 0.01 0.01 0.01 0.01 0.01 0.01 0.01 0.01 0.01 0.00 0.00 0.00 0.00 0.00 0.01 0.01 0.01 0.01 0.01 0.01
0.02 0.02 0.02 0.03 0.02 0.02 0.02 0.03 0.04 0.06 0.07 0.05 0.03 0.02 0.01 0.01 0.01 0.01 0.01 0.01 0.01 0.01 0.00 0.01 0.01 0.01 0.01 0.01 0.01 0.01 0.02 0.02 0.01 0.00 0.00 0.00 0.00 0.01 0.01 0.02 0.01 0.01 0.01
0.03 0.02 0.02 0.02 0.03 0.03 0.02 0.03 0.06 0.08 0.10 0.10 0.06 0.02 0.02 0.01 0.01 0.01 0.01 0.01 0.01 0.00 0.00 0.01 0.01 0.01 0.01 0.01 0.01 0.01 0.02 0.02 0.01 0.00 0.00 0.00 0.00 0.01 0.02 0.02 0.02 0.02 0.02
0.01 0.01 0.02 0.02 0.02 0.02 0.03 0.02 0.05 0.08 0.10 0.12 0.10 0.05 0.03 0.02 0.01 0.01 0.01 0.01 0.01 0.01 0.01 0.01 0.01 0.01 0.01 0.01 0.01 0.01 0.01 0.01 0.01 0.00 0.00 0.00 0.00 0.01 0.02 0.03 0.02 0.02 0.02
0.03 0.02 0.02 0.02 0.02 0.02 0.02 0.03 0.05 0.08 0.09 0.10 0.09 0.05 0.03 0.02 0.01 0.01 0.01 0.01 0.01 0.01 0.01 0.01 0.01 0.01 0.01 0.01 0.01 0.01 0.01 0.01 0.00 0.00 0.00 0.00 0.00 0.01 0.01 0.02 0.02 0.02 0.02
0.03 0.03 0.04 0.03 0.01 0.01 0.01 0.02 0.04 0.06 0.08 0.08 0.07 0.05 0.03 0.02 0.01 0.01 0.00 0.00 0.01 0.01 0.01 0.01 0.01 0.01 0.01 0.01 0.01 0.01 0.00 0.01 0.00 0.00 0.00 0.00 0.01 0.01 0.01 0.02 0.02 0.03 0.03
0.03 0.03 0.04 0.04 0.03 0.01 0.01 0.01 0.02 0.04 0.07 0.08 0.06 0.04 0.03 0.02 0.01 0.01 0.00 0.00 0.00 0.00 0.01 0.01 0.01 0.01 0.01 0.01 0.01 0.00 0.01 0.00 0.00 0.00 0.00 0.00 0.01 0.01 0.02 0.03 0.03 0.03 0.04
0.04 0.03 0.03 0.03 0.04 0.02 0.01 0.01 0.01 0.03 0.05 0.08 0.06 0.05 0.03 0.02 0.01 0.01 0.00 0.00 0.00 0.00 0.00 0.00 0.01 0.01 0.01 0.00 0.00 0.00 0.00 0.00 0.00 0.00 0.00 0.00 0.01 0.02 0.03 0.03 0.04 0.04 0.05
0.05 0.03 0.02 0.03 0.03 0.03 0.02 0.01 0.01 0.02 0.04 0.09 0.08 0.06 0.05 0.04 0.02 0.02 0.01 0.01 0.00 0.00 0.00 0.00 0.00 0.00 0.00 0.00 0.00 0.00 0.00 0.00 0.00 0.00 0.00 0.00 0.01 0.02 0.03 0.03 0.04 0.05 0.04
0.04 0.04 0.03 0.02 0.03 0.03 0.03 0.02 0.02 0.02 0.03 0.08 0.10 0.06 0.07 0.07 0.04 0.02 0.01 0.00 0.01 0.00 0.00 0.00 0.00 0.00 0.00 0.00 0.00 0.00 0.00 0.00 0.00 0.00 0.00 0.01 0.01 0.02 0.02 0.03 0.04 0.05 0.05
0.05 0.05 0.03 0.03 0.03 0.03 0.03 0.03 0.03 0.04 0.04 0.07 0.10 0.07 0.06 0.06 0.05 0.03 0.01 0.00 0.01 0.00 0.00 0.00 0.00 0.00 0.00 0.01 0.01 0.01 0.00 0.00 0.00 0.00 0.01 0.01 0.01 0.02 0.03 0.03 0.04 0.05 0.06
0.06 0.07 0.06 0.04 0.04 0.03 0.02 0.02 0.03 0.03 0.04 0.06 0.11 0.07 0.06 0.06 0.06 0.04 0.02 0.01 0.01 0.01 0.00 0.00 0.00 0.00 0.00 0.00 0.01 0.01 0.01 0.00 0.00 0.00 0.00 0.01 0.01 0.01 0.02 0.02 0.03 0.05 0.06
0.05 0.07 0.09 0.07 0.06 0.04 0.03 0.02 0.02 0.03 0.04 0.06 0.10 0.09 0.06 0.07 0.09 0.06 0.03 0.02 0.01 0.01 0.00 0.00 0.00 0.00 0.00 0.01 0.01 0.00 0.01 0.01 0.00 0.00 0.00 0.00 0.01 0.01 0.01 0.02 0.03 0.04 0.05
0.03 0.04 0.07 0.07 0.05 0.05 0.04 0.03 0.02 0.02 0.03 0.06 0.09 0.10 0.07 0.06 0.08 0.09 0.05 0.03 0.02 0.01 0.01 0.00 0.00 0.00 0.00 0.00 0.01 0.00 0.00 0.00 0.00 0.00 0.00 0.00 0.00 0.00 0.01 0.01 0.02 0.03 0.04
0.01 0.02 0.04 0.08 0.06 0.04 0.05 0.05 0.03 0.02 0.02 0.03 0.06 0.08 0.08 0.06 0.05 0.08 0.07 0.04 0.03 0.02 0.01 0.01 0.00 0.00 0.00 0.00 0.00 0.00 0.00 0.00 0.00 0.00 0.00 0.01 0.01 0.01 0.01 0.01 0.01 0.02 0.02
0.01 0.01 0.02 0.06 0.10 0.07 0.05 0.07 0.08 0.05 0.03 0.03 0.05 0.06 0.08 0.07 0.05 0.05 0.07 0.06 0.04 0.02 0.02 0.01 0.01 0.00 0.00 0.00 0.00 0.00 0.01 0.01 0.01 0.02 0.02 0.02 0.02 0.02 0.02 0.02 0.01 0.01 0.01
0.01 0.01 0.02 0.05 0.09 0.11 0.08 0.07 0.10 0.10 0.07 0.05 0.05 0.06 0.08 0.07 0.05 0.05 0.05 0.08 0.07 0.04 0.03 0.02 0.01 0.00 0.00 0.00 0.00 0.00 0.00 0.01 0.01 0.02 0.02 0.02 0.02 0.02 0.02 0.02 0.02 0.01 0.01
0.01 0.01 0.02 0.04 0.07 0.11 0.10 0.10 0.10 0.10 0.11 0.08 0.07 0.06 0.07 0.08 0.06 0.05 0.04 0.05 0.08 0.08 0.05 0.03 0.01 0.01 0.00 0.00 0.00 0.01 0.01 0.01 0.01 0.01 0.02 0.02 0.02 0.02 0.02 0.02 0.01 0.01 0.01
0.02 0.02 0.03 0.03 0.05 0.07 0.09 0.10 0.12 0.12 0.11 0.12 0.10 0.08 0.07 0.06 0.07 0.05 0.03 0.03 0.04 0.07 0.07 0.04 0.03 0.02 0.01 0.01 0.01 0.01 0.01 0.01 0.02 0.02 0.02 0.02 0.02 0.02 0.02 0.02 0.01 0.01 0.01
0.03 0.03 0.03 0.04 0.04 0.04 0.06 0.08 0.09 0.11 0.11 0.13 0.13 0.09 0.08 0.08 0.06 0.05 0.03 0.02 0.02 0.04 0.05 0.05 0.05 0.03 0.02 0.02 0.01 0.02 0.02 0.02 0.02 0.02 0.01 0.01 0.01 0.01 0.01 0.01 0.01 0.01 0.01
0.03 0.03 0.04 0.04 0.04 0.04 0.06 0.08 0.07 0.08 0.08 0.08 0.10 0.11 0.09 0.08 0.07 0.05 0.03 0.02 0.02 0.02 0.03 0.03 0.05 0.05 0.04 0.03 0.02 0.02 0.03 0.02 0.02 0.02 0.02 0.02 0.01 0.01 0.01 0.00 0.00 0.00 0.00
0.02 0.03 0.03 0.04 0.05 0.04 0.04 0.06 0.06 0.06 0.06 0.05 0.05 0.07 0.07 0.07 0.06 0.05 0.03 0.03 0.02 0.02 0.02 0.02 0.03 0.04 0.04 0.04 0.03 0.03 0.03 0.03 0.03 0.02 0.02 0.02 0.02 0.02 0.01 0.01 0.00 0.00 0.00
MSLP
1019.77 1019.47 1019.23 1019.05 1018.97 1018.93 1018.92 1018.89 1018.81 1018.67 1018.46 1018.22 1017.97 1017.75 1017.56 1017.41 1017.31 1017.22 1017.14 1017.05 1016.94 1016.81 1016.67 1016.51 1016.35 1016.20 1016.05 1015.92 1015.79 1015.67 1015.57 1015.51 1015.47 1015.47 1015.51 1015.57 1015.64 1015.71 1015.77 1015.80 1015.81 1015.80 1015.78
1019.72 1019.45 1019.22 1019.06 1018.97 1018.94 1018.93 1018.90 1018.83 1018.70 1018.52 1018.31 1018.09 1017.90 1017.75 1017.63 1017.55 1017.47 1017.40 1017.31 1017.19 1017.06 1016.90 1016.73 1016.55 1016.37 1016.18 1015.99 1015.81 1015.63 1015.48 1015.36 1015.29 1015.28 1015.31 1015.37 1015.45 1015.53 1015.60 1015.64 1015.66 1015.66 1015.67
1019.68 1019.43 1019.21 1019.05 1018.97 1018.94 1018.93 1018.91 1018.85 1018.74 1018.58 1018.40 1018.22 1018.07 1017.94 1017.85 1017.77 1017.69 1017.61 1017.50 1017.36 1017.20 1017.03 1016.84 1016.65 1016.45 1016.24 1016.02 1015.80 1015.58 1015.40 1015.25 1015.15 1015.12 1015.14 1015.20 1015.27 1015.35 1015.41 1015.45 1015.47 1015.48 1015.51
1019.70 1019.47 1019.27 1019.12 1019.03 1019.00 1018.98 1018.96 1018.90 1018.80 1018.66 1018.51 1018.36 1018.23 1018.12 1018.03 1017.95 1017.85 1017.74 1017.59 1017.42 1017.24 1017.04 1016.84 1016.64 1016.44 1016.22 1016.00 1015.77 1015.54 1015.34 1015.18 1015.06 1015.01 1015.01 1015.05 1015.11 1015.16 1015.20 1015.22 1015.23 1015.25 1015.28
1019.82 1019.62 1019.43 1019.29 1019.20 1019.16 1019.13 1019.09 1019.02 1018.92 1018.78 1018.64 1018.51 1018.39 1018.28 1018.19 1018.09 1017.96 1017.80 1017.62 1017.41 1017.19 1016.97 1016.76 1016.57 1016.37 1016.17 1015.96 1015.74 1015.53 1015.33 1015.16 1015.03 1014.96 1014.93 1014.92 1014.94 1014.95 1014.95 1014.94 1014.94 1014.95 1014.99
1020.04 1019.86 1019.70 1019.57 1019.50 1019.44 1019.39 1019.33 1019.23 1019.09 1018.95 1018.80 1018.66 1018.54 1018.44 1018.33 1018.21 1018.05 1017.86 1017.63 1017.38 1017.13 1016.89 1016.68 1016.49 1016.31 1016.13 1015.94 1015.75 1015.55 1015.35 1015.18 1015.03 1014.92 1014.85 1014.79 1014.75 1014.70 1014.65 1014.60 1014.57 1014.58 1014.62
1020.32 1020.18 1020.05 1019.95 1019.88 1019.82 1019.75 1019.64 1019.50 1019.33 1019.15 1018.99 1018.84 1018.72 1018.61 1018.50 1018.36 1018.18 1017.96 1017.69 1017.42 1017.14 1016.89 1016.66 1016.47 1016.31 1016.15 1015.98 1015.80 1015.61 1015.41 1015.22 1015.04 1014.88 1014.75 1014.62 1014.51 1014.39 1014.28 1014.19 1014.13 1014.13 1014.18
1020.60 1020.50 1020.43 1020.37 1020.32 1020.25 1020.15 1020.01 1019.83 1019.62 1019.41 1019.22 1019.07 1018.94 1018.84 1018.73 1018.59 1018.40 1018.16 1017.88 1017.57 1017.27 1017.00 1016.77 1016.57 1016.40 1016.24 1016.08 1015.90 1015.69 1015.48 1015.25 1015.03 1014.81 1014.60 1014.40 1014.21 1014.02 1013.85 1013.71 1013.62 1013.61 1013.67
1020.80 1020.77 1020.76 1020.75 1020.73 1020.68 1020.57 1020.40 1020.18 1019.93 1019.70 1019.50 1019.34 1019.23 1019.14 1019.04 1018.91 1018.73 1018.48 1018.19 1017.87 1017.55 1017.26 1017.00 1016.78 1016.60 1016.42 1016.23 1016.02 1015.79 1015.53 1015.25 1014.97 1014.69 1014.41 1014.13 1013.86 1013.61 1013.38 1013.20 1013.08 1013.05 1013.12
1020.90 1020.94 1021.00 1021.06 1021.08 1021.05 1020.94 1020.76 1020.52 1020.26 1020.01 1019.81 1019.67 1019.57 1019.50 1019.43 1019.32 1019.14 1018.90 1018.60 1018.27 1017.93 1017.62 1017.33 1017.08 1016.86 1016.64 1016.41 1016.16 1015.87 1015.56 1015.23 1014.89 1014.54 1014.19 1013.85 1013.52 1013.21 1012.93 1012.71 1012.57 1012.52 1012.57
1020.88 1021.00 1021.14 1021.26 1021.34 1021.34 1021.25 1021.07 1020.84 1020.58 1020.34 1020.15 1020.03 1019.95 1019.91 1019.85 1019.76 1019.60 1019.36 1019.06 1018.72 1018.36 1018.02 1017.70 1017.41 1017.14 1016.87 1016.59 1016.28 1015.94 1015.57 1015.19 1014.80 1014.40 1014.01 1013.62 1013.25 1012.90 1012.59 1012.33 1012.15 1012.07 1012.09
1020.78 1020.98 1021.19 1021.38 1021.51 1021.55 1021.48 1021.33 1021.11 1020.87 1020.66 1020.49 1020.39 1020.34 1020.31 1020.28 1020.19 1020.03 1019.80 1019.49 1019.14 1018.76 1018.39 1018.04 1017.71 1017.39 1017.07 1016.74 1016.38 1016.00 1015.59 1015.17 1014.75 1014.33 1013.92 1013.51 1013.12 1012.76 1012.42 1012.13 1011.92 1011.79 1011.76
1020.64 1020.91 1021.19 1021.43 1021.61 1021.68 1021.65 1021.53 1021.34 1021.14 1020.95 1020.82 1020.74 1020.70 1020.69 1020.65 1020.56 1020.40 1020.16 1019.85 1019.48 1019.09 1018.70 1018.32 1017.96 1017.60 1017.24 1016.87 1016.48 1016.07 1015.65 1015.22 1014.80 1014.38 1013.98 1013.59 1013.21 1012.84 1012.50 1012.19 1011.93 1011.75 1011.64
1020.52 1020.84 1021.17 1021.45 1021.66 1021.77 1021.77 1021.68 1021.53 1021.37 1021.22 1021.11 1021.05 1021.02 1021.00 1020.96 1020.86 1020.69 1020.43 1020.11 1019.73 1019.33 1018.93 1018.53 1018.15 1017.77 1017.39 1017.00 1016.60 1016.19 1015.77 1015.37 1014.97 1014.60 1014.23 1013.88 1013.53 1013.19 1012.85 1012.53 1012.23 1011.98 1011.80
1020.44 1020.81 1021.16 1021.47 1021.70 1021.82 1021.85 1021.80 1021.69 1021.56 1021.44 1021.36 1021.31 1021.29 1021.26 1021.20 1021.08 1020.89 1020.62 1020.29 1019.92 1019.52 1019.11 1018.71 1018.31 1017.93 1017.54 1017.15 1016.76 1016.37 1016.00 1015.63 1015.29 1014.98 1014.68 1014.38 1014.09 1013.78 1013.45 1013.13 1012.80 1012.50 1012.23
1020.41 1020.80 1021.17 1021.48 1021.71 1021.85 1021.90 1021.88 1021.81 1021.72 1021.63 1021.57 1021.53 1021.50 1021.46 1021.38 1021.25 1021.04 1020.77 1020.44 1020.07 1019.68 1019.28 1018.89 1018.49 1018.11 1017.73 1017.36 1017.00 1016.65 1016.32 1016.02 1015.75 1015.51 1015.28 1015.05 1014.81 1014.55 1014.26 1013.94 1013.60 1013.26 1012.93
1020.39 1020.79 1021.16 1021.47 1021.70 1021.85 1021.92 1021.93 1021.90 1021.85 1021.80 1021.76 1021.73 1021.69 1021.63 1021.54 1021.40 1021.19 1020.93 1020.61 1020.26 1019.89 1019.51 1019.12 1018.74 1018.37 1018.00 1017.65 1017.32 1017.01 1016.74 1016.50 1016.30 1016.13 1015.97 1015.81 1015.63 1015.41 1015.16 1014.86 1014.54 1014.18 1013.81
1020.35 1020.76 1021.12 1021.42 1021.65 1021.81 1021.91 1021.96 1021.97 1021.96 1021.94 1021.92 1021.90 1021.86 1021.80 1021.70 1021.56 1021.37 1021.13 1020.84 1020.53 1020.18 1019.82 1019.45 1019.08 1018.71 1018.36 1018.02 1017.72 1017.45 1017.23 1017.05 1016.91 1016.79 1016.69 1016.58 1016.44 1016.27 1016.06 1015.80 1015.50 1015.16 1014.79
1020.25 1020.66 1021.02 1021.32 1021.56 1021.74 1021.87 1021.96 1022.02 1022.06 1022.07 1022.08 1022.06 1022.02 1021.96 1021.87 1021.74 1021.58 1021.38 1021.14 1020.86 1020.56 1020.23 1019.87 1019.51 1019.15 1018.80 1018.47 1018.19 1017.95 1017.77 1017.63 1017.53 1017.45 1017.38 1017.30 1017.20 1017.06 1016.88 1016.67 1016.41 1016.10 1015.76
1020.07 1020.49 1020.85 1021.16 1021.42 1021.64 1021.81 1021.96 1022.07 1022.15 1022.20 1022.22 1022.21 1022.18 1022.13 1022.05 1021.94 1021.82 1021.66 1021.48 1021.25 1020.99 1020.69 1020.36 1020.01 1019.65 1019.30 1018.98 1018.71 1018.49 1018.33 1018.21 1018.14 1018.08 1018.02 1017.95 1017.86 1017.74 1017.59 1017.41 1017.20 1016.95 1016.65
1019.84 1020.27 1020.64 1020.97 1021.26 1021.52 1021.75 1021.95 1022.11 1022.24 1022.32 1022.36 1022.36 1022.32 1022.27 1022.20 1022.13 1022.05 1021.95 1021.82 1021.65 1021.44 1021.18 1020.88 1020.53 1020.18 1019.84 1019.53 1019.26 1019.06 1018.91 1018.81 1018.74 1018.68 1018.62 1018.54 1018.44 1018.32 1018.18 1018.03 1017.85 1017.66 1017.42
1019.58 1020.01 1020.40 1020.76 1021.09 1021.40 1021.68 1021.94 1022.16 1022.32 1022.43 1022.47 1022.47 1022.43 1022.38 1022.32 1022.28 1022.23 1022.19 1022.12 1022.01 1021.86 1021.64 1021.36 1021.04 1020.71 1020.37 1020.08 1019.83 1019.65 1019.51 1019.42 1019.35 1019.28 1019.20 1019.09 1018.97 1018.83 1018.68 1018.54 1018.39 1018.24 1018.05
1019.33 1019.77 1020.17 1020.55 1020.92 1021.28 1021.62 1021.93 1022.19 1022.39 1022.51 1022.55 1022.54 1022.49 1022.44 1022.39 1022.36 1022.35 1022.35 1022.34 1022.29 1022.19 1022.02 1021.78 1021.49 1021.19 1020.88 1020.61 1020.40 1020.24 1020.13 1020.05 1019.98 1019.89 1019.78 1019.64 1019.48 1019.31 1019.14 1018.98 1018.84 1018.71 1018.55
1019.11 1019.55 1019.96 1020.36 1020.76 1021.16 1021.54 1021.89 1022.19 1022.40 1022.53 1022.58 1022.56 1022.50 1022.43 1022.38 1022.36 1022.38 1022.42 1022.46 1022.47 1022.41 1022.29 1022.10 1021.86 1021.60 1021.34 1021.11 1020.94 1020.82 1020.74 1020.68 1020.61 1020.52 1020.39 1020.21 1020.00 1019.79 1019.58 1019.40 1019.24 1019.11 1018.96
1018.93 1019.36 1019.76 1020.16 1020.58 1021.00 1021.41 1021.79 1022.11 1022.35 1022.48 1022.53 1022.50 1022.43 1022.35 1022.31 1022.30 1022.34 1022.41 1022.49 1022.54 1022.53 1022.46 1022.33 1022.14 1021.93 1021.73 1021.56 1021.44 1021.36 1021.32 1021.29 1021.24 1021.14 1020.99 1020.78 1020.53 1020.27 1020.02 1019.80 1019.61 1019.45 1019.29
1018.76 1019.16 1019.54 1019.93 1020.34 1020.76 1021.19 1021.58 1021.92 1022.17 1022.32 1022.37 1022.35 1022.28 1022.21 1022.17 1022.18 1022.24 1022.34 1022.45 1022.53 1022.57 1022.54 1022.45 1022.32 1022.17 1022.03 1021.92 1021.86 1021.84 1021.84 1021.85 1021.81 1021.72 1021.55 1021.31 1021.03 1020.73 1020.43 1020.17 1019.94 1019.74 1019.54
Thickness
5735 5737 5737 5737 5736 5735 5735 5735 5735 5735 5734 5735 5734 5734 5734 5734 5733 5733 5733 5733 5732 5732 5732 5732 5732 5731 5731 5730 5730 5729 5728 5728 5727 5727 5726 5725 5725 5724 5724 5723 5722 5722 5722
5736 5735 5735 5734 5733 5733 5732 5732 5732 5731 5731 5731 5731 5731 5731 5731 5730 5730 5730 5730 5730 5729 5729 5729 5729 5728 5728 5728 5727 5726 5725 5725 5724 5723 5723 5722 5721 5721 5721 5720 5719 5719 5718
5733 5732 5732 5731 5730 5729 5729 5728 5728 5728 5728 5728 5728 5728 5728 5727 5727 5727 5727 5727 5726 5726 5726 5726 5725 5725 5725 5724 5724 5723 5723 5722 5721 5721 5720 5719 5718 5718 5718 5717 5717 5716 5715
5728 5728 5728 5728 5727 5726 5725 5725 5725 5724 5724 5724 5724 5724 5724 5724 5724 5724 5723 5723 5723 5723 5722 5722 5722 5721 5721 5721 5720 5720 5719 5719 5718 5718 5717 5716 5716 5715 5715 5714 5714 5713 5712
5723 5723 5723 5723 5723 5722 5721 5721 5721 5720 5720 5720 5720 5720 5720 5720 5720 5720 5720 5719 5719 5718 5718 5718 5718 5717 5717 5717 5717 5716 5716 5716 5715 5715 5714 5713 5713 5713 5712 5712 5711 5711 5710
5716 5718 5718 5718 5718 5717 5717 5716 5716 5716 5716 5715 5715 5715 5715 5715 5715 5715 5715 5715 5715 5714 5714 5713 5713 5713 5713 5713 5713 5713 5713 5712 5712 5712 5711 5711 5710 5710 5710 5709 5708 5708 5707
5709 5711 5712 5712 5712 5712 5712 5711 5711 5711 5711 5711 5710 5710 5710 5710 5710 5710 5710 5710 5710 5710 5710 5709 5709 5709 5709 5709 5709 5709 5709 5709 5709 5708 5708 5708 5707 5707 5707 5707 5706 5705 5704
5703 5704 5705 5705 5705 5705 5705 5705 5705 5705 5705 5705 5704 5704 5703 5704 5704 5704 5705 5705 5705 5705 5705 5705 5705 5705 5705 5705 5705 5705 5705 5705 5705 5705 5704 5704 5704 5704 5704 5704 5703 5702 5702
5696 5697 5697 5697 5698 5698 5698 5698 5698 5698 5698 5698 5698 5697 5697 5697 5698 5698 5699 5699 5700 5700 5700 5700 5700 5700 5700 5700 5700 5700 5700 5701 5701 5701 5701 5701 5701 5701 5701 5701 5700 5699 5699
5687 5688 5689 5690 5690 5691 5691 5691 5691 5691 5691 5691 5691 5691 5691 5691 5691 5692 5692 5693 5694 5694 5694 5695 5695 5695 5695 5695 5696 5696 5696 5696 5696 5696 5696 5697 5697 5697 5697 5697 5696 5696 5696
5678 5679 5681 5682 5683 5684 5684 5684 5684 5684 5684 5684 5684 5685 5685 5685 5685 5685 5686 5687 5687 5688 5688 5689 5690 5690 5690 5690 5691 5691 5691 5691 5691 5692 5692 5692 5692 5693 5693 5693 5692 5692 5692
5669 5671 5673 5674 5675 5676 5677 5677 5677 5677 5677 5677 5678 5678 5679 5679 5679 5679 5680 5681 5681 5682 5683 5683 5684 5684 5685 5685 5685 5685 5686 5686 5686 5686 5687 5687 5688 5688 5688 5688 5688 5687 5687
5661 5664 5665 5667 5668 5669 5669 5670 5670 5670 5670 5671 5672 5672 5672 5672 5672 5673 5674 5674 5675 5676 5676 5677 5678 5678 5678 5679 5679 5679 5680 5680 5680 5681 5681 5682 5682 5682 5683 5683 5682 5683 5682
5655 5656 5658 5659 5660 5661 5662 5662 5662 5663 5663 5664 5665 5666 5666 5666 5666 5667 5668 5668 5669 5669 5670 5671 5671 5671 5672 5672 5673 5673 5673 5674 5674 5675 5675 5676 5676 5677 5677 5677 5677 5677 5677
5648 5649 5650 5652 5653 5654 5655 5655 5655 5656 5657 5658 5658 5659 5660 5660 5659 5660 5661 5662 5662 5663 5663 5664 5664 5664 5665 5666 5666 5666 5667 5667 5667 5668 5668 5669 5669 5669 5670 5670 5670 5670 5670
5640 5641 5643 5644 5645 5646 5647 5648 5648 5649 5650 5651 5652 5652 5653 5653 5653 5653 5654 5655 5655 5656 5656 5657 5657 5657 5658 5658 5659 5659 5659 5660 5660 5660 5661 5661 5661 5661 5662 5662 5662 5663 5663
5632 5633 5635 5637 5638 5638 5639 5640 5641 5642 5643 5644 5644 5645 5646 5646 5646 5647 5647 5648 5648 5649 5649 5649 5650 5650 5650 5651 5651 5651 5651 5652 5652 5652 5652 5653 5653 5653 5653 5653 5654 5655 5655
5625 5626 5628 5630 5629 5630 5631 5632 5633 5634 5635 5636 5637 5638 5638 5639 5639 5639 5640 5640 5641 5641 5642 5642 5641 5641 5641 5641 5641 5642 5643 5643 5643 5643 5643 5644 5643 5643 5644 5644 5645 5645 5646
5617 5619 5620 5621 5621 5622 5623 5624 5625 5627 5627 5628 5629 5630 5631 5632 5632 5632 5632 5632 5633 5633 5633 5633 5633 5632 5632 5632 5632 5633 5633 5634 5634 5634 5634 5634 5634 5634 5634 5634 5634 5635 5636
5609 5611 5611 5613 5613 5615 5616 5617 5617 5618 5619 5620 5622 5622 5623 5623 5624 5624 5624 5624 5624 5625 5624 5624 5624 5623 5623 5623 5624 5624 5624 5625 5625 5624 5624 5623 5623 5623 5623 5623 5624 5625 5625
5601 5602 5604 5604 5605 5606 5608 5609 5609 5610 5612 5613 5614 5614 5615 5615 5616 5616 5615 5615 5616 5616 5616 5615 5615 5614 5613 5613 5613 5613 5614 5615 5615 5614 5614 5613 5612 5612 5612 5612 5613 5614 5614
5594 5595 5596 5597 5598 5599 5601 5602 5603 5603 5603 5605 5606 5606 5607 5607 5607 5608 5607 5607 5607 5607 5607 5606 5606 5604 5603 5602 5601 5602 5603 5605 5605 5605 5603 5602 5601 5600 5600 5601 5601 5602 5602
5587 5588 5590 5589 5590 5592 5593 5594 5595 5595 5595 5596 5596 5597 5598 5599 5598 5599 5599 5598 5598 5598 5597 5597 5596 5595 5593 5591 5590 5590 5590 5592 5591 5593 5592 5591 5590 5589 5588 5589 5590 5590 5591
5580 5580 5581 5582 5584 5585 5586 5587 5587 5587 5586 5586 5587 5588 5588 5590 5590 5590 5590 5589 5588 5588 5588 5587 5587 5585 5584 5582 5580 5579 5578 5578 5578 5581 5581 5579 5578 5578 5577 5578 5579 5579 5580
5573 5573 5573 5575 5576 5577 5578 5579 5578 5579 5578 5578 5578 5579 5579 5580 5580 5581 5581 5580 5579 5578 5577 5577 5576 5575 5573 5572 5570 5569 5568 5566 5565 5566 5569 5569 5567 5566 5567 5567 5568 5569 5569
5566 5565 5566 5567 5568 5569 5570 5570 5570 5569 5569 5570 5570 5570 5570 5570 5571 5571 5571 5569 5569 5569 5568 5567 5566 5565 5563 5562 5560 5559 5557 5557 5556 5555 5556 5558 5558 5557 5557 5557 5558 5558 5559